AFR118 LPPR-LPPT

Flight info

Callsign AFR118
Flight time N/A
Altitude 35000
Route MANIK DCT ABRIL DCT XAMAX
Aircraft A20N/M-SDE2E3FGHIRWXY/LB1

Departure

Time 2026-05-06 22:31
Airport Francisco de Sá Carneiro Airport (LPPR)

Arrival

Time N/A
Airport Lisbon Humberto Delgado Airport (LPPT)
Time Latitude Longitude Altitude Speed Heading
2026-05-06 21:51 41.23549 -8.67247 257 ft 0 kts 111°
2026-05-06 22:18 41.23555 -8.67268 257 ft 3 kts 114°
2026-05-06 22:18 41.23563 -8.67292 258 ft 2 kts 111°
2026-05-06 22:18 41.23570 -8.67313 258 ft 3 kts 128°
2026-05-06 22:18 41.23584 -8.67330 259 ft 3 kts 162°
2026-05-06 22:19 41.23603 -8.67333 259 ft 3 kts 197°
2026-05-06 22:19 41.23607 -8.67331 259 ft 0 kts 201°
2026-05-06 22:23 41.23605 -8.67332 259 ft 1 kts 201°
2026-05-06 22:23 41.23572 -8.67350 260 ft 8 kts 207°
2026-05-06 22:23 41.23507 -8.67386 262 ft 12 kts 185°
2026-05-06 22:24 41.23413 -8.67365 262 ft 14 kts 168°
2026-05-06 22:24 41.23335 -8.67420 264 ft 14 kts 252°
2026-05-06 22:24 41.23319 -8.67514 269 ft 0 kts 258°
2026-05-06 22:25 41.23319 -8.67516 269 ft 0 kts 258°
2026-05-06 22:26 41.23318 -8.67520 269 ft 4 kts 258°
2026-05-06 22:26 41.23309 -8.67580 273 ft 7 kts 258°
2026-05-06 22:26 41.23306 -8.67600 274 ft 0 kts 258°
2026-05-06 22:28 41.23306 -8.67601 274 ft 0 kts 258°
2026-05-06 22:28 41.23305 -8.67604 274 ft 0 kts 258°
2026-05-06 22:29 41.23298 -8.67647 276 ft 12 kts 258°
2026-05-06 22:29 41.23295 -8.67679 277 ft 3 kts 262°
2026-05-06 22:29 41.23293 -8.67738 277 ft 9 kts 290°
2026-05-06 22:29 41.23371 -8.67754 275 ft 13 kts 345°
2026-05-06 22:30 41.23397 -8.67761 274 ft 0 kts 348°
2026-05-06 22:30 41.23418 -8.67767 273 ft 19 kts 348°
2026-05-06 22:30 41.23803 -8.67867 256 ft 94 kts 349°
2026-05-06 22:30 41.24700 -8.68096 267 ft 162 kts 349°
2026-05-06 22:31 41.25920 -8.68417 631 ft 194 kts 349°
2026-05-06 22:31 41.27324 -8.68737 1168 ft 215 kts 351°
2026-05-06 22:31 41.28797 -8.69061 1796 ft 202 kts 351°
2026-05-06 22:31 41.30103 -8.69313 2168 ft 183 kts 353°
2026-05-06 22:32 41.31409 -8.69520 2306 ft 197 kts 354°
2026-05-06 22:32 41.32325 -8.69637 2788 ft 200 kts 355°
2026-05-06 22:32 41.33701 -8.69774 3880 ft 192 kts 356°
2026-05-06 22:32 41.35011 -8.69865 4805 ft 195 kts 355°
2026-05-06 22:33 41.36381 -8.70117 5520 ft 203 kts 346°
2026-05-06 22:33 41.37733 -8.70810 6304 ft 209 kts 332°
2026-05-06 22:33 41.38977 -8.71871 6962 ft 219 kts 327°
2026-05-06 22:33 41.40293 -8.72865 8013 ft 217 kts 333°
2026-05-06 22:34 41.41591 -8.73975 8619 ft 239 kts 307°
2026-05-06 22:34 41.42141 -8.76027 9415 ft 238 kts 262°
2026-05-06 22:34 41.41509 -8.77950 10474 ft 224 kts 226°
2026-05-06 22:34 41.40616 -8.79634 11398 ft 233 kts 235°
2026-05-06 22:35 41.39741 -8.81557 12000 ft 247 kts 238°
2026-05-06 22:35 41.38872 -8.83493 13027 ft 246 kts 227°
2026-05-06 22:35 41.37453 -8.84850 13583 ft 264 kts 200°
2026-05-06 22:35 41.35559 -8.85228 13868 ft 292 kts 175°
2026-05-06 22:36 41.33476 -8.84655 14131 ft 320 kts 165°
2026-05-06 22:36 41.31255 -8.83768 14386 ft 346 kts 164°
2026-05-06 22:36 41.28851 -8.82872 14641 ft 371 kts 166°
2026-05-06 22:36 41.26265 -8.82042 14895 ft 394 kts 168°
2026-05-06 22:37 41.23527 -8.81257 15144 ft 402 kts 169°
2026-05-06 22:37 41.20791 -8.80519 15392 ft 406 kts 169°
2026-05-06 22:37 41.18072 -8.79804 15631 ft 386 kts 169°
2026-05-06 22:37 41.15536 -8.79141 15876 ft 360 kts 169°
2026-05-06 22:38 41.13098 -8.78504 16127 ft 359 kts 169°
2026-05-06 22:38 41.10639 -8.77860 16386 ft 359 kts 170°
2026-05-06 22:38 41.08174 -8.77215 16648 ft 362 kts 170°
2026-05-06 22:38 41.05713 -8.76532 16914 ft 362 kts 167°
2026-05-06 22:39 41.03297 -8.75569 17176 ft 365 kts 163°
2026-05-06 22:39 41.00855 -8.74559 17445 ft 368 kts 164°
2026-05-06 22:39 40.98422 -8.73555 17838 ft 366 kts 164°
2026-05-06 22:39 40.95986 -8.72557 18514 ft 367 kts 164°
2026-05-06 22:40 40.93542 -8.71555 19224 ft 367 kts 164°
2026-05-06 22:40 40.91100 -8.70554 19965 ft 367 kts 164°
2026-05-06 22:40 40.88660 -8.69555 20725 ft 367 kts 164°
2026-05-06 22:40 40.86226 -8.68559 21500 ft 366 kts 164°
2026-05-06 22:41 40.81394 -8.66586 23112 ft 361 kts 164°
2026-05-06 22:41 40.79005 -8.65612 23875 ft 358 kts 164°
2026-05-06 22:41 40.76640 -8.64647 24581 ft 354 kts 164°
2026-05-06 22:42 40.74303 -8.63694 25310 ft 349 kts 165°
2026-05-06 22:42 40.72002 -8.62756 26054 ft 343 kts 165°
2026-05-06 22:42 40.69746 -8.61838 26817 ft 336 kts 165°
2026-05-06 22:42 40.67527 -8.61042 27592 ft 325 kts 173°
2026-05-06 22:43 40.65320 -8.60746 28412 ft 313 kts 179°
2026-05-06 22:43 40.63184 -8.60626 29171 ft 303 kts 180°
2026-05-06 22:43 40.61069 -8.60448 29549 ft 306 kts 178°
2026-05-06 22:43 40.58942 -8.60215 29861 ft 308 kts 178°
2026-05-06 22:44 40.56798 -8.59972 30169 ft 310 kts 178°
2026-05-06 22:44 40.54640 -8.59725 30433 ft 312 kts 178°
2026-05-06 22:44 40.52467 -8.59477 30695 ft 315 kts 178°
2026-05-06 22:45 40.51112 -8.59322 30821 ft 318 kts 178°
2026-05-06 22:45 40.48885 -8.59070 30950 ft 325 kts 178°
2026-05-06 22:45 40.46607 -8.58812 31078 ft 332 kts 178°
2026-05-06 22:45 40.44284 -8.58549 31210 ft 339 kts 178°
2026-05-06 22:46 40.41909 -8.58280 31344 ft 346 kts 178°
2026-05-06 22:46 40.39481 -8.58005 31479 ft 353 kts 178°
2026-05-06 22:46 40.37006 -8.57715 31608 ft 361 kts 178°
2026-05-06 22:46 40.34482 -8.57408 31740 ft 368 kts 177°
2026-05-06 22:47 40.31911 -8.57093 31871 ft 375 kts 177°
2026-05-06 22:47 40.29285 -8.56773 32006 ft 382 kts 177°
2026-05-06 22:47 40.26614 -8.56448 32139 ft 389 kts 177°
2026-05-06 22:47 40.23898 -8.56120 32280 ft 396 kts 177°
2026-05-06 22:48 40.21138 -8.55787 32413 ft 402 kts 177°
2026-05-06 22:48 40.18323 -8.55448 32553 ft 409 kts 177°
2026-05-06 22:48 40.15472 -8.55104 32671 ft 415 kts 178°
2026-05-06 22:48 40.12580 -8.54756 32819 ft 421 kts 178°
2026-05-06 22:49 40.09644 -8.54403 32939 ft 426 kts 178°
2026-05-06 22:49 40.06670 -8.54046 33077 ft 432 kts 178°
2026-05-06 22:49 40.03669 -8.53686 33214 ft 434 kts 178°
2026-05-06 22:49 40.00666 -8.53354 33346 ft 432 kts 179°
2026-05-06 22:50 39.97667 -8.53102 33469 ft 432 kts 179°
2026-05-06 22:50 39.94665 -8.52873 33626 ft 432 kts 179°
2026-05-06 22:50 39.91665 -8.52642 33745 ft 433 kts 180°
2026-05-06 22:50 39.88660 -8.52403 33882 ft 433 kts 180°
2026-05-06 22:51 39.85656 -8.52158 34009 ft 432 kts 180°
2026-05-06 22:51 39.82655 -8.51910 34125 ft 433 kts 180°
2026-05-06 22:51 39.79647 -8.51710 34234 ft 432 kts 184°
2026-05-06 22:51 39.76675 -8.52092 34352 ft 428 kts 194°
2026-05-06 22:52 39.73838 -8.53190 34469 ft 425 kts 205°
2026-05-06 22:52 39.71219 -8.54947 34577 ft 423 kts 213°
2026-05-06 22:52 39.68745 -8.56915 34693 ft 423 kts 213°
2026-05-06 22:52 39.66234 -8.58902 34811 ft 423 kts 213°
2026-05-06 22:53 39.63719 -8.60885 34925 ft 424 kts 213°
2026-05-06 22:53 39.58675 -8.64849 34953 ft 423 kts 213°
2026-05-06 22:54 39.53639 -8.68798 34950 ft 423 kts 213°
2026-05-06 22:54 39.48596 -8.72747 34949 ft 425 kts 213°
2026-05-06 22:55 39.43507 -8.76725 34944 ft 427 kts 213°
2026-05-06 22:55 39.38784 -8.81319 34946 ft 424 kts 225°
2026-05-06 22:56 39.34812 -8.86942 34949 ft 424 kts 230°
2026-05-06 22:56 39.30930 -8.92666 34944 ft 424 kts 230°
2026-05-06 22:57 39.27038 -8.98370 34947 ft 423 kts 229°
2026-05-06 22:57 39.23144 -9.04065 34949 ft 424 kts 229°
2026-05-06 22:58 39.19256 -9.09740 34956 ft 422 kts 230°
2026-05-06 22:58 39.15338 -9.15452 34951 ft 426 kts 230°
2026-05-06 22:59 39.14048 -9.17329 34953 ft 425 kts 230°